BAW9173 EGLL-EGKK

Flight info

Callsign BAW9173
Flight time 0h 17m
Altitude 8000
Route MODMI DCT MID
Aircraft A320/M-SDE3FGHIRWY/LB1

Departure

Time 2026-05-04 21:31
Airport London Heathrow Airport (EGLL)

Arrival

Time 2026-05-04 21:49
Airport London Gatwick Airport (EGKK)
Time Latitude Longitude Altitude Speed Heading
2026-05-04 21:13 51.47060 -0.48611 90 ft 0 kts 269°
2026-05-04 21:22 51.47061 -0.48576 89 ft 4 kts 269°
2026-05-04 21:22 51.47061 -0.48532 90 ft 4 kts 269°
2026-05-04 21:22 51.47062 -0.48499 90 ft 4 kts 250°
2026-05-04 21:23 51.47076 -0.48473 87 ft 4 kts 187°
2026-05-04 21:23 51.47099 -0.48472 88 ft 2 kts 179°
2026-05-04 21:23 51.47100 -0.48472 88 ft 0 kts 179°
2026-05-04 21:27 51.47066 -0.48472 86 ft 9 kts 180°
2026-05-04 21:27 51.46995 -0.48471 88 ft 11 kts 179°
2026-05-04 21:28 51.46908 -0.48470 89 ft 14 kts 179°
2026-05-04 21:28 51.46833 -0.48470 86 ft 0 kts 180°
2026-05-04 21:29 51.46826 -0.48470 86 ft 5 kts 180°
2026-05-04 21:29 51.46761 -0.48482 86 ft 13 kts 208°
2026-05-04 21:29 51.46743 -0.48629 86 ft 15 kts 269°
2026-05-04 21:29 51.46697 -0.48748 89 ft 15 kts 185°
2026-05-04 21:30 51.46601 -0.48767 90 ft 11 kts 200°
2026-05-04 21:30 51.46523 -0.48769 89 ft 13 kts 159°
2026-05-04 21:30 51.46478 -0.48678 86 ft 12 kts 90°
2026-05-04 21:30 51.46479 -0.48324 88 ft 64 kts 89°
2026-05-04 21:31 51.46485 -0.45635 148 ft 162 kts 89°
2026-05-04 21:31 51.46499 -0.43880 794 ft 158 kts 87°
2026-05-04 21:31 51.46503 -0.42118 1431 ft 164 kts 94°
2026-05-04 21:32 51.46032 -0.40305 1729 ft 192 kts 126°
2026-05-04 21:32 51.45167 -0.38491 1973 ft 219 kts 124°
2026-05-04 21:32 51.43981 -0.36724 2380 ft 249 kts 149°
2026-05-04 21:32 51.42325 -0.35682 3169 ft 261 kts 162°
2026-05-04 21:33 51.39181 -0.35891 4837 ft 268 kts 200°
2026-05-04 21:33 51.35859 -0.38672 6685 ft 275 kts 208°
2026-05-04 21:33 51.32468 -0.41477 6987 ft 274 kts 207°
2026-05-04 21:33 51.29029 -0.44182 6999 ft 276 kts 206°
2026-05-04 21:34 51.25580 -0.46870 7003 ft 276 kts 206°
2026-05-04 21:34 51.22151 -0.49572 6792 ft 274 kts 206°
2026-05-04 21:34 51.19836 -0.51409 6327 ft 273 kts 206°
2026-05-04 21:34 51.18282 -0.53114 5981 ft 272 kts 228°
2026-05-04 21:35 51.17406 -0.55740 5823 ft 263 kts 256°
2026-05-04 21:35 51.17050 -0.58515 5695 ft 255 kts 261°
2026-05-04 21:35 51.16768 -0.61240 5565 ft 246 kts 261°
2026-05-04 21:35 51.16430 -0.63884 5342 ft 240 kts 248°
2026-05-04 21:36 51.15460 -0.65987 5058 ft 236 kts 214°
2026-05-04 21:36 51.13953 -0.66908 5000 ft 235 kts 187°
2026-05-04 21:36 51.12312 -0.66967 4996 ft 237 kts 174°
2026-05-04 21:36 51.10669 -0.66663 5001 ft 238 kts 172°
2026-05-04 21:37 51.09056 -0.66280 4997 ft 237 kts 164°
2026-05-04 21:37 51.07699 -0.64921 4998 ft 232 kts 124°
2026-05-04 21:37 51.07228 -0.62554 5000 ft 231 kts 84°
2026-05-04 21:37 51.07845 -0.60231 4998 ft 231 kts 48°
2026-05-04 21:38 51.08921 -0.58318 4917 ft 232 kts 55°
2026-05-04 21:38 51.09604 -0.56031 4696 ft 227 kts 72°
2026-05-04 21:38 51.09992 -0.53604 4384 ft 226 kts 77°
2026-05-04 21:38 51.10326 -0.51185 4070 ft 219 kts 77°
2026-05-04 21:39 51.10654 -0.48833 3790 ft 217 kts 77°
2026-05-04 21:39 51.10980 -0.46514 3500 ft 216 kts 77°
2026-05-04 21:39 51.11301 -0.44231 3210 ft 205 kts 77°
2026-05-04 21:39 51.11603 -0.42080 2950 ft 193 kts 77°
2026-05-04 21:40 51.11899 -0.40091 2955 ft 175 kts 69°
2026-05-04 21:40 51.12630 -0.38672 2968 ft 173 kts 26°
2026-05-04 21:40 51.13915 -0.38407 3033 ft 203 kts 351°
2026-05-04 21:40 51.15159 -0.39503 2969 ft 204 kts 312°
2026-05-04 21:41 51.15720 -0.41536 2973 ft 203 kts 274°
2026-05-04 21:41 51.15394 -0.43689 2976 ft 202 kts 235°
2026-05-04 21:41 51.14326 -0.45066 2983 ft 201 kts 198°
2026-05-04 21:41 51.13074 -0.45981 3177 ft 202 kts 223°
2026-05-04 21:42 51.12291 -0.47841 3431 ft 204 kts 243°
2026-05-04 21:42 51.11779 -0.49917 3561 ft 201 kts 263°
2026-05-04 21:42 51.11803 -0.52121 3276 ft 200 kts 276°
2026-05-04 21:42 51.11605 -0.54293 3028 ft 200 kts 240°
2026-05-04 21:43 51.10619 -0.55790 3004 ft 200 kts 201°
2026-05-04 21:43 51.09297 -0.55965 3003 ft 195 kts 156°
2026-05-04 21:43 51.08334 -0.54596 2992 ft 189 kts 109°
2026-05-04 21:43 51.08359 -0.52581 2991 ft 188 kts 60°
2026-05-04 21:44 51.09231 -0.51038 2994 ft 191 kts 45°
2026-05-04 21:44 51.10115 -0.49468 2978 ft 190 kts 57°
2026-05-04 21:44 51.10699 -0.47594 2988 ft 189 kts 71°
2026-05-04 21:44 51.11077 -0.45590 2987 ft 190 kts 75°
2026-05-04 21:45 51.11389 -0.43544 2977 ft 190 kts 76°
2026-05-04 21:45 51.11684 -0.41491 2825 ft 189 kts 77°
2026-05-04 21:45 51.11971 -0.39456 2602 ft 188 kts 76°
2026-05-04 21:45 51.12254 -0.37433 2361 ft 187 kts 77°
2026-05-04 21:46 51.12536 -0.35419 2107 ft 186 kts 77°
2026-05-04 21:46 51.12812 -0.33440 1885 ft 181 kts 77°
2026-05-04 21:46 51.13074 -0.31563 1619 ft 170 kts 77°
2026-05-04 21:46 51.13317 -0.29823 1410 ft 150 kts 78°
2026-05-04 21:47 51.13532 -0.28279 1204 ft 137 kts 78°
2026-05-04 21:47 51.13734 -0.26816 1012 ft 133 kts 77°
2026-05-04 21:47 51.13936 -0.25383 849 ft 133 kts 78°
2026-05-04 21:47 51.14136 -0.23962 677 ft 131 kts 76°
2026-05-04 21:48 51.14331 -0.22531 506 ft 132 kts 78°
2026-05-04 21:48 51.14531 -0.21100 321 ft 132 kts 78°
2026-05-04 21:48 51.14725 -0.19695 209 ft 119 kts 79°
2026-05-04 21:48 51.14863 -0.18688 208 ft 70 kts 78°
2026-05-04 21:49 51.14936 -0.18163 212 ft 35 kts 77°
2026-05-04 21:49 51.15007 -0.17904 214 ft 20 kts 55°
2026-05-04 21:49 51.15091 -0.17756 210 ft 13 kts 13°
2026-05-04 21:49 51.15191 -0.17773 205 ft 16 kts 354°
2026-05-04 21:50 51.15267 -0.17699 209 ft 14 kts 78°
2026-05-04 21:50 51.15291 -0.17528 211 ft 17 kts 78°
2026-05-04 21:50 51.15328 -0.17374 212 ft 13 kts 27°
2026-05-04 21:50 51.15424 -0.17399 205 ft 16 kts 347°
2026-05-04 21:51 51.15538 -0.17438 208 ft 17 kts 348°
2026-05-04 21:51 51.15596 -0.17391 207 ft 11 kts 77°
2026-05-04 21:51 51.15612 -0.17259 205 ft 14 kts 78°
2026-05-04 21:51 51.15636 -0.17095 209 ft 17 kts 77°
2026-05-04 21:52 51.15652 -0.16983 212 ft 10 kts 76°
2026-05-04 21:52 51.15675 -0.16930 209 ft 5 kts 38°
2026-05-04 21:52 51.15707 -0.16900 213 ft 3 kts 30°
2026-05-04 21:52 51.15723 -0.16885 213 ft 2 kts 31°
2026-05-04 21:53 51.15736 -0.16872 214 ft 1 kts 31°
2026-05-04 21:53 51.15740 -0.16868 212 ft 0 kts 32°
2026-05-04 21:53 51.15742 -0.16866 211 ft 0 kts 32°